Time,TemperatureF,DewpointF,PressureIn,WindDirection,WindDirectionDegrees,WindSpeedMPH,WindSpeedGustMPH,Humidity,HourlyPrecipIn,Conditions,Clouds,dailyrainin,SoftwareType,DateUTC
2013-04-01 00:14:00,41.5,12.6,29.73,NW,315,15.0,-999.0,30,-99.99,,,-99.99,meteohub,2013-04-01 04:14:00,
2013-04-01 00:15:00,41.5,12.6,29.73,NW,315,26.0,-999.0,30,-99.99,,,-99.99,meteohub,2013-04-01 04:15:00,
2013-04-01 00:18:00,41.2,11.5,29.73,WNW,292,16.0,-999.0,29,-99.99,,,-99.99,meteohub,2013-04-01 04:18:00,
2013-04-01 00:23:00,40.8,11.8,29.73,NW,315,17.0,19.0,30,0.00,,,0.00,meteohub,2013-04-01 04:23:00,
2013-04-01 00:28:00,40.6,11.7,29.73,NW,315,10.0,19.0,30,0.00,,,0.00,meteohub,2013-04-01 04:28:00,
2013-04-01 00:34:00,40.5,12.2,29.73,NNW,338,11.0,19.0,31,0.00,,,0.00,meteohub,2013-04-01 04:34:00,
2013-04-01 00:39:00,40.3,12.2,29.73,WNW,292,10.0,19.0,31,0.00,,,0.00,meteohub,2013-04-01 04:39:00,
2013-04-01 00:44:00,39.9,11.8,29.73,NW,315,16.0,18.0,31,0.00,,,0.00,meteohub,2013-04-01 04:44:00,
2013-04-01 00:49:00,39.7,11.7,29.73,NNW,338,10.0,18.0,31,0.00,,,0.00,meteohub,2013-04-01 04:49:00,
2013-04-01 00:55:00,39.6,11.5,29.73,NNW,338,9.0,18.0,31,0.00,,,0.00,meteohub,2013-04-01 04:55:00,
2013-04-01 01:00:00,39.4,12.0,29.73,NW,315,10.0,17.0,32,0.00,,,0.00,meteohub,2013-04-01 05:00:00,
2013-04-01 01:05:00,39.4,11.3,29.73,NW,315,10.0,17.0,31,0.00,,,0.00,meteohub,2013-04-01 05:05:00,
2013-04-01 01:10:00,39.2,12.6,29.73,NNW,338,10.0,15.0,33,0.00,,,0.00,meteohub,2013-04-01 05:10:00,
2013-04-01 01:15:00,39.0,11.7,29.73,NW,315,11.0,16.0,32,0.00,,,0.00,meteohub,2013-04-01 05:15:00,
2013-04-01 01:21:00,39.0,12.4,29.73,NNW,338,18.0,18.0,33,0.00,,,0.00,meteohub,2013-04-01 05:21:00,
2013-04-01 01:26:00,38.8,11.7,29.73,WNW,292,9.0,16.0,32,0.00,,,0.00,meteohub,2013-04-01 05:26:00,
2013-04-01 01:31:00,38.8,12.9,29.73,NNW,338,8.0,18.0,34,0.00,,,0.00,meteohub,2013-04-01 05:31:00,
2013-04-01 01:36:00,38.7,12.0,29.73,NW,315,6.0,18.0,33,0.00,,,0.00,meteohub,2013-04-01 05:36:00,
2013-04-01 01:42:00,38.7,14.0,29.73,NNW,338,11.0,11.0,36,0.00,,,0.00,meteohub,2013-04-01 05:42:00,
2013-04-01 01:47:00,38.5,12.0,29.73,NNW,338,19.0,19.0,33,0.00,,,0.00,meteohub,2013-04-01 05:47:00,
2013-04-01 01:53:00,37.0,10.0,29.73,North,0,16.0,-999.0,32,0.00,,,0.00,meteohub,2013-04-01 05:53:00,
2013-04-01 01:58:00,35.8,13.3,29.73,NNW,338,11.0,-999.0,39,0.00,,,0.00,meteohub,2013-04-01 05:58:00,
2013-04-01 02:03:00,34.7,14.0,29.73,North,0,6.0,-999.0,42,0.00,,,0.00,meteohub,2013-04-01 06:03:00,
2013-04-01 02:08:00,34.0,15.4,29.73,NE,45,6.0,-999.0,46,0.00,,,0.00,meteohub,2013-04-01 06:08:00,
2013-04-01 02:13:00,33.8,16.2,29.76,NNE,22,6.0,-999.0,48,0.00,,,0.00,meteohub,2013-04-01 06:13:00,
2013-04-01 02:19:00,33.8,16.7,29.76,North,0,7.0,-999.0,49,0.00,,,0.00,meteohub,2013-04-01 06:19:00,
2013-04-01 02:24:00,33.8,16.2,29.76,NNW,338,9.0,-999.0,48,0.00,,,0.00,meteohub,2013-04-01 06:24:00,
2013-04-01 02:29:00,34.0,17.4,29.76,North,0,8.0,-999.0,50,0.00,,,0.00,meteohub,2013-04-01 06:29:00,
2013-04-01 02:35:00,34.0,16.3,29.76,NNW,338,8.0,-999.0,48,0.00,,,0.00,meteohub,2013-04-01 06:35:00,
2013-04-01 02:40:00,33.8,14.7,29.79,NNW,338,8.0,-999.0,45,0.00,,,0.00,meteohub,2013-04-01 06:40:00,
2013-04-01 02:45:00,34.0,14.4,29.79,NNW,338,9.0,-999.0,44,0.00,,,0.00,meteohub,2013-04-01 06:45:00,
2013-04-01 02:50:00,33.8,13.8,29.79,NNE,22,6.0,-999.0,43,0.00,,,0.00,meteohub,2013-04-01 06:50:00,
2013-04-01 02:55:00,33.8,13.8,29.79,NNW,338,6.0,-999.0,43,0.00,,,0.00,meteohub,2013-04-01 06:55:00,
2013-04-01 03:01:00,34.0,14.4,29.79,NNW,338,12.0,-999.0,44,-99.99,,,0.00,meteohub,2013-04-01 07:01:00,
2013-04-01 03:07:00,34.0,13.3,29.79,NNW,338,9.0,-999.0,42,-99.99,,,0.00,meteohub,2013-04-01 07:07:00,
2013-04-01 03:12:00,34.0,12.7,29.79,North,0,8.0,-999.0,41,-99.99,,,0.00,meteohub,2013-04-01 07:12:00,
2013-04-01 03:17:00,34.0,12.7,29.79,NNW,338,11.0,-999.0,41,-99.99,,,0.00,meteohub,2013-04-01 07:17:00,
2013-04-01 03:22:00,34.0,12.2,29.79,WNW,292,8.0,-999.0,40,-99.99,,,0.00,meteohub,2013-04-01 07:22:00,
2013-04-01 03:28:00,33.8,12.0,29.79,NNW,338,14.0,-999.0,40,-99.99,,,0.00,meteohub,2013-04-01 07:28:00,
2013-04-01 03:33:00,33.8,12.0,29.79,NW,315,6.0,-999.0,40,-99.99,,,0.00,meteohub,2013-04-01 07:33:00,
2013-04-01 03:38:00,33.8,10.9,29.79,NNW,338,13.0,-999.0,38,-99.99,,,0.00,meteohub,2013-04-01 07:38:00,
2013-04-01 03:44:00,33.8,9.1,29.79,NNW,338,8.0,-999.0,35,-99.99,,,0.00,meteohub,2013-04-01 07:44:00,
2013-04-01 03:49:00,33.8,10.4,29.79,NNE,22,8.0,-999.0,37,-99.99,,,0.00,meteohub,2013-04-01 07:49:00,
2013-04-01 03:54:00,33.6,12.0,29.79,NNW,338,13.0,-999.0,40,-99.99,,,0.00,meteohub,2013-04-01 07:54:00,
2013-04-01 03:59:00,33.3,12.2,29.79,NNW,338,9.0,-999.0,41,-99.99,,,0.00,meteohub,2013-04-01 07:59:00,
2013-04-01 04:05:00,33.1,11.5,29.79,ENE,68,6.0,-999.0,40,-99.99,,,0.00,meteohub,2013-04-01 08:05:00,
2013-04-01 04:10:00,33.1,9.1,29.79,NNW,338,8.0,-999.0,36,-99.99,,,0.00,meteohub,2013-04-01 08:10:00,
2013-04-01 04:15:00,33.1,7.9,29.79,NNW,338,8.0,-999.0,34,-99.99,,,0.00,meteohub,2013-04-01 08:15:00,
2013-04-01 04:20:00,33.1,6.4,29.79,NNW,338,11.0,-999.0,32,-99.99,,,0.00,meteohub,2013-04-01 08:20:00,
2013-04-01 04:25:00,32.7,4.8,29.82,ENE,68,11.0,-999.0,30,-99.99,,,0.00,meteohub,2013-04-01 08:25:00,
2013-04-01 04:30:00,32.7,3.4,29.82,NNE,22,6.0,-999.0,28,-99.99,,,0.00,meteohub,2013-04-01 08:30:00,
2013-04-01 04:36:00,32.7,0.9,29.82,NNE,22,6.0,-999.0,25,-99.99,,,0.00,meteohub,2013-04-01 08:36:00,
2013-04-01 04:41:00,32.5,0.7,29.82,NNW,338,13.0,-999.0,25,-99.99,,,0.00,meteohub,2013-04-01 08:41:00,
2013-04-01 04:46:00,32.5,0.7,29.82,NNW,338,8.0,-999.0,25,-99.99,,,0.00,meteohub,2013-04-01 08:46:00,
2013-04-01 04:51:00,32.5,0.7,29.82,NNE,22,7.0,-999.0,25,-99.99,,,0.00,meteohub,2013-04-01 08:51:00,
2013-04-01 04:57:00,32.4,0.5,29.82,North,0,11.0,-999.0,25,-99.99,,,0.00,meteohub,2013-04-01 08:57:00,
2013-04-01 05:02:00,32.2,0.5,29.82,NNE,22,9.0,-999.0,25,-99.99,,,0.00,meteohub,2013-04-01 09:02:00,
2013-04-01 05:07:00,32.0,0.3,29.82,NNW,338,8.0,-999.0,25,-99.99,,,0.00,meteohub,2013-04-01 09:07:00,
2013-04-01 05:12:00,31.8,0.0,29.85,NNW,338,12.0,-999.0,25,-99.99,,,0.00,meteohub,2013-04-01 09:12:00,
2013-04-01 05:18:00,31.6,0.0,29.85,North,0,6.0,-999.0,25,-99.99,,,0.00,meteohub,2013-04-01 09:18:00,
2013-04-01 05:23:00,31.5,-0.2,29.85,NNW,338,10.0,-999.0,25,-99.99,,,0.00,meteohub,2013-04-01 09:23:00,
2013-04-01 05:28:00,31.3,-0.4,29.85,NNW,338,6.0,-999.0,25,-99.99,,,0.00,meteohub,2013-04-01 09:28:00,
2013-04-01 05:33:00,31.1,-0.6,29.85,North,0,6.0,-999.0,25,-99.99,,,0.00,meteohub,2013-04-01 09:33:00,
2013-04-01 05:39:00,31.1,1.8,29.82,NNW,338,8.0,-999.0,28,-99.99,,,0.00,meteohub,2013-04-01 09:39:00,
2013-04-01 05:44:00,31.1,-0.6,29.82,NNW,338,9.0,-999.0,25,-99.99,,,0.00,meteohub,2013-04-01 09:44:00,
2013-04-01 05:49:00,30.9,1.8,29.82,NNW,338,5.0,-999.0,28,-99.99,,,0.00,meteohub,2013-04-01 09:49:00,
2013-04-01 05:54:00,30.7,-0.9,29.85,NNW,338,13.0,-999.0,25,-99.99,,,0.00,meteohub,2013-04-01 09:54:00,
2013-04-01 06:00:00,30.6,1.4,29.85,NNW,338,6.0,-999.0,28,-99.99,,,0.00,meteohub,2013-04-01 10:00:00,
2013-04-01 06:05:00,30.4,-1.1,29.85,North,0,6.0,-999.0,25,-99.99,,,0.00,meteohub,2013-04-01 10:05:00,
2013-04-01 06:10:00,30.2,-1.3,29.88,North,0,6.0,-999.0,25,-99.99,,,0.00,meteohub,2013-04-01 10:10:00,
2013-04-01 06:16:00,30.2,-1.3,29.88,NNE,22,7.0,-999.0,25,-99.99,,,0.00,meteohub,2013-04-01 10:16:00,
2013-04-01 06:21:00,30.2,-1.3,29.88,NNE,22,9.0,-999.0,25,-99.99,,,0.00,meteohub,2013-04-01 10:21:00,
2013-04-01 06:27:00,30.0,-1.5,29.88,NNE,22,10.0,-999.0,25,-99.99,,,0.00,meteohub,2013-04-01 10:27:00,
2013-04-01 06:32:00,30.0,-1.5,29.88,NNE,22,10.0,-999.0,25,-99.99,,,0.00,meteohub,2013-04-01 10:32:00,
2013-04-01 06:37:00,30.0,-1.5,29.88,NNW,338,8.0,-999.0,25,-99.99,,,0.00,meteohub,2013-04-01 10:37:00,
2013-04-01 06:42:00,29.8,-1.7,29.91,NNW,338,6.0,-999.0,25,-99.99,,,0.00,meteohub,2013-04-01 10:42:00,
2013-04-01 06:47:00,29.8,-1.7,29.91,NNW,338,5.0,-999.0,25,-99.99,,,-99.99,meteohub,2013-04-01 10:47:00,
2013-04-01 06:52:00,29.7,-1.8,29.91,NNW,338,6.0,-999.0,25,-99.99,,,-99.99,meteohub,2013-04-01 10:52:00,
2013-04-01 06:57:00,29.5,0.5,29.91,NNW,338,8.0,-999.0,28,-99.99,,,-99.99,meteohub,2013-04-01 10:57:00,
2013-04-01 07:02:00,29.5,-2.0,29.91,WNW,292,7.0,-999.0,25,-99.99,,,-99.99,meteohub,2013-04-01 11:02:00,
2013-04-01 07:08:00,29.5,0.5,29.91,NNW,338,11.0,-999.0,28,-99.99,,,-99.99,meteohub,2013-04-01 11:08:00,
2013-04-01 07:13:00,29.5,-2.0,29.91,NNW,338,15.0,-999.0,25,-99.99,,,-99.99,meteohub,2013-04-01 11:13:00,
2013-04-01 07:19:00,29.5,0.5,29.91,NNW,338,10.0,-999.0,28,-99.99,,,-99.99,meteohub,2013-04-01 11:19:00,
2013-04-01 07:24:00,29.3,-2.2,29.91,NNW,338,8.0,-999.0,25,-99.99,,,-99.99,meteohub,2013-04-01 11:24:00,
2013-04-01 07:29:00,29.3,0.3,29.91,North,0,8.0,-999.0,28,-99.99,,,-99.99,meteohub,2013-04-01 11:29:00,
2013-04-01 07:34:00,29.3,0.3,29.91,NNW,338,8.0,-999.0,28,-99.99,,,-99.99,meteohub,2013-04-01 11:34:00,
2013-04-01 07:39:00,29.3,0.3,29.91,NNW,338,7.0,-999.0,28,-99.99,,,-99.99,meteohub,2013-04-01 11:39:00,
2013-04-01 07:45:00,29.3,0.3,29.91,West,270,10.0,-999.0,28,-99.99,,,-99.99,meteohub,2013-04-01 11:45:00,
2013-04-01 07:50:00,29.3,0.3,29.91,NNW,338,11.0,-999.0,28,-99.99,,,-99.99,meteohub,2013-04-01 11:50:00,
2013-04-01 07:55:00,29.3,0.3,29.91,NNW,338,9.0,-999.0,28,-99.99,,,-99.99,meteohub,2013-04-01 11:55:00,
2013-04-01 08:01:00,29.5,0.5,29.91,NNW,338,6.0,-999.0,28,-99.99,,,-99.99,meteohub,2013-04-01 12:01:00,
2013-04-01 08:07:00,29.5,1.9,29.91,NNW,338,9.0,-999.0,30,-99.99,,,-99.99,meteohub,2013-04-01 12:07:00,
2013-04-01 08:12:00,29.5,0.5,29.91,NNW,338,9.0,-999.0,28,-99.99,,,-99.99,meteohub,2013-04-01 12:12:00,
2013-04-01 08:17:00,29.5,0.5,29.91,NNW,338,11.0,-999.0,28,-99.99,,,-99.99,meteohub,2013-04-01 12:17:00,
2013-04-01 08:22:00,29.5,1.9,29.91,NNW,338,10.0,-999.0,30,-99.99,,,-99.99,meteohub,2013-04-01 12:22:00,
2013-04-01 08:27:00,29.5,0.5,29.94,NNW,338,9.0,-999.0,28,-99.99,,,-99.99,meteohub,2013-04-01 12:27:00,
2013-04-01 08:32:00,29.7,0.5,29.94,WNW,292,8.0,-999.0,28,-99.99,,,-99.99,meteohub,2013-04-01 12:32:00,
2013-04-01 08:38:00,29.8,2.3,29.94,NNW,338,12.0,-999.0,30,-99.99,,,-99.99,meteohub,2013-04-01 12:38:00,
2013-04-01 08:43:00,29.7,0.5,29.94,NNW,338,10.0,-999.0,28,-99.99,,,-99.99,meteohub,2013-04-01 12:43:00,
2013-04-01 08:48:00,29.7,2.1,29.94,NW,315,8.0,-999.0,30,-99.99,,,-99.99,meteohub,2013-04-01 12:48:00,
2013-04-01 08:54:00,29.5,0.5,29.94,NNW,338,11.0,-999.0,28,-99.99,,,-99.99,meteohub,2013-04-01 12:54:00,
2013-04-01 08:59:00,29.5,1.9,29.94,NNW,338,10.0,-999.0,30,-99.99,,,-99.99,meteohub,2013-04-01 12:59:00,
2013-04-01 09:04:00,29.5,4.6,29.94,NNE,22,8.0,-999.0,34,-99.99,,,-99.99,meteohub,2013-04-01 13:04:00,
2013-04-01 09:09:00,29.3,6.3,29.94,NNW,338,6.0,-999.0,37,-99.99,,,-99.99,meteohub,2013-04-01 13:09:00,
2013-04-01 09:15:00,29.1,5.0,29.94,NNE,22,12.0,-999.0,35,-99.99,,,-99.99,meteohub,2013-04-01 13:15:00,
2013-04-01 09:20:00,29.1,3.6,29.94,NNW,338,11.0,-999.0,33,-99.99,,,-99.99,meteohub,2013-04-01 13:20:00,
2013-04-01 09:25:00,29.5,3.9,29.94,NNW,338,13.0,-999.0,33,-99.99,,,-99.99,meteohub,2013-04-01 13:25:00,
2013-04-01 09:30:00,29.7,2.1,29.94,NNW,338,17.0,-999.0,30,-99.99,,,-99.99,meteohub,2013-04-01 13:30:00,
2013-04-01 09:36:00,30.0,2.3,29.94,NNW,338,15.0,-999.0,30,-99.99,,,-99.99,meteohub,2013-04-01 13:36:00,
2013-04-01 09:41:00,30.2,3.2,29.94,NNW,338,14.0,-999.0,31,-99.99,,,-99.99,meteohub,2013-04-01 13:41:00,
2013-04-01 09:46:00,30.0,2.3,29.94,NW,315,13.0,-999.0,30,-99.99,,,-99.99,meteohub,2013-04-01 13:46:00,
2013-04-01 09:52:00,30.0,0.9,29.94,NNW,338,21.0,-999.0,28,-99.99,,,-99.99,meteohub,2013-04-01 13:52:00,
2013-04-01 09:57:00,30.2,1.0,29.97,NNE,22,13.0,-999.0,28,-99.99,,,-99.99,meteohub,2013-04-01 13:57:00,
2013-04-01 10:02:00,30.6,-2.7,29.97,NNE,22,15.0,-999.0,23,-99.99,,,-99.99,meteohub,2013-04-01 14:02:00,
2013-04-01 10:07:00,30.4,-2.9,29.97,NNW,338,11.0,-999.0,23,-99.99,,,-99.99,meteohub,2013-04-01 14:07:00,
2013-04-01 10:12:00,30.2,-1.3,29.97,NNW,338,17.0,-999.0,25,-99.99,,,-99.99,meteohub,2013-04-01 14:12:00,
2013-04-01 10:17:00,30.2,-3.1,29.97,NNW,338,11.0,-999.0,23,-99.99,,,-99.99,meteohub,2013-04-01 14:17:00,
2013-04-01 10:22:00,30.9,-2.6,29.97,NNW,338,13.0,-999.0,23,-99.99,,,-99.99,meteohub,2013-04-01 14:22:00,
2013-04-01 10:27:00,31.1,-2.4,29.97,NNW,338,11.0,-999.0,23,-99.99,,,-99.99,meteohub,2013-04-01 14:27:00,
2013-04-01 10:32:00,30.4,-2.9,29.97,NNW,338,15.0,-999.0,23,-99.99,,,-99.99,meteohub,2013-04-01 14:32:00,
2013-04-01 10:38:00,30.4,-2.9,29.97,NNW,338,15.0,-999.0,23,-99.99,,,-99.99,meteohub,2013-04-01 14:38:00,
2013-04-01 10:43:00,30.2,-3.1,29.97,NNW,338,13.0,-999.0,23,-99.99,,,-99.99,meteohub,2013-04-01 14:43:00,
2013-04-01 10:48:00,30.4,-2.9,29.97,NE,45,10.0,-999.0,23,-99.99,,,-99.99,meteohub,2013-04-01 14:48:00,
2013-04-01 10:53:00,31.1,-2.4,29.97,NNE,22,11.0,-999.0,23,-99.99,,,-99.99,meteohub,2013-04-01 14:53:00,
2013-04-01 10:59:00,31.6,-1.8,29.97,NNE,22,9.0,-999.0,23,-99.99,,,-99.99,meteohub,2013-04-01 14:59:00,
2013-04-01 11:04:00,31.6,-1.8,29.97,North,0,13.0,-999.0,23,-99.99,,,-99.99,meteohub,2013-04-01 15:04:00,
2013-04-01 11:09:00,31.5,-2.0,29.97,NNW,338,13.0,-999.0,23,-99.99,,,-99.99,meteohub,2013-04-01 15:09:00,
2013-04-01 11:14:00,31.3,-2.2,29.97,NW,315,16.0,-999.0,23,-99.99,,,-99.99,meteohub,2013-04-01 15:14:00,
2013-04-01 11:20:00,31.8,-1.7,29.97,NNW,338,11.0,-999.0,23,-99.99,,,-99.99,meteohub,2013-04-01 15:20:00,
2013-04-01 11:25:00,32.2,-1.3,29.97,WNW,292,17.0,-999.0,23,-99.99,,,-99.99,meteohub,2013-04-01 15:25:00,
2013-04-01 11:30:00,31.5,-2.0,29.97,WNW,292,17.0,-999.0,23,-99.99,,,-99.99,meteohub,2013-04-01 15:30:00,
2013-04-01 11:36:00,31.5,-2.0,29.97,NNW,338,13.0,-999.0,23,-99.99,,,-99.99,meteohub,2013-04-01 15:36:00,
2013-04-01 11:41:00,31.5,-2.0,29.97,NNW,338,12.0,-999.0,23,-99.99,,,-99.99,meteohub,2013-04-01 15:41:00,
2013-04-01 11:47:00,32.0,-1.5,29.97,NW,315,13.0,-999.0,23,-99.99,,,-99.99,meteohub,2013-04-01 15:47:00,
2013-04-01 11:52:00,32.0,-1.5,29.97,North,0,11.0,-999.0,23,-99.99,,,-99.99,meteohub,2013-04-01 15:52:00,
2013-04-01 11:57:00,31.6,-1.8,30.00,NW,315,18.0,-999.0,23,-99.99,,,-99.99,meteohub,2013-04-01 15:57:00,
2013-04-01 12:02:00,31.6,-1.8,30.00,NNW,338,11.0,-999.0,23,-99.99,,,-99.99,meteohub,2013-04-01 16:02:00,
2013-04-01 12:07:00,32.0,-1.5,30.00,NNW,338,9.0,-999.0,23,-99.99,,,-99.99,meteohub,2013-04-01 16:07:00,
2013-04-01 12:14:00,32.5,-1.1,30.00,WNW,292,16.0,-999.0,23,-99.99,,,-99.99,meteohub,2013-04-01 16:14:00,
2013-04-01 12:19:00,32.7,-0.9,30.00,NNW,338,13.0,-999.0,23,-99.99,,,-99.99,meteohub,2013-04-01 16:19:00,
2013-04-01 12:24:00,32.0,-4.4,30.00,WNW,292,18.0,-999.0,20,-99.99,,,-99.99,meteohub,2013-04-01 16:24:00,
2013-04-01 12:29:00,32.0,-1.5,30.00,NW,315,9.0,-999.0,23,-99.99,,,-99.99,meteohub,2013-04-01 16:29:00,
2013-04-01 12:34:00,32.5,-1.1,30.00,NNW,338,17.0,-999.0,23,-99.99,,,-99.99,meteohub,2013-04-01 16:34:00,
2013-04-01 12:39:00,32.7,-3.8,30.00,NNW,338,19.0,-999.0,20,-99.99,,,-99.99,meteohub,2013-04-01 16:39:00,
2013-04-01 12:45:00,32.7,-3.8,30.00,NNW,338,18.0,-999.0,20,-99.99,,,-99.99,meteohub,2013-04-01 16:45:00,
2013-04-01 12:50:00,32.7,-3.8,30.00,NNW,338,7.0,-999.0,20,-99.99,,,-99.99,meteohub,2013-04-01 16:50:00,
2013-04-01 12:55:00,33.1,-0.6,30.00,NW,315,10.0,-999.0,23,-99.99,,,-99.99,meteohub,2013-04-01 16:55:00,
2013-04-01 13:00:00,33.1,-0.6,30.00,NNW,338,15.0,-999.0,23,-99.99,,,-99.99,meteohub,2013-04-01 17:00:00,
2013-04-01 13:06:00,32.5,-4.0,30.00,NNW,338,9.0,-999.0,20,-99.99,,,-99.99,meteohub,2013-04-01 17:06:00,
2013-04-01 13:11:00,32.7,-3.8,30.00,WNW,292,10.0,-999.0,20,-99.99,,,-99.99,meteohub,2013-04-01 17:11:00,
2013-04-01 13:16:00,33.1,-0.6,30.00,NW,315,10.0,-999.0,23,-99.99,,,-99.99,meteohub,2013-04-01 17:16:00,
2013-04-01 13:21:00,33.1,-3.5,30.00,NW,315,15.0,-999.0,20,-99.99,,,-99.99,meteohub,2013-04-01 17:21:00,
2013-04-01 13:27:00,33.1,-0.6,30.00,WNW,292,13.0,-999.0,23,-99.99,,,-99.99,meteohub,2013-04-01 17:27:00,
2013-04-01 13:32:00,33.3,-3.3,30.00,NW,315,9.0,-999.0,20,-99.99,,,-99.99,meteohub,2013-04-01 17:32:00,
2013-04-01 13:37:00,33.3,-3.3,30.00,WNW,292,17.0,-999.0,20,-99.99,,,-99.99,meteohub,2013-04-01 17:37:00,
2013-04-01 13:42:00,33.6,0.0,30.00,NNW,338,17.0,-999.0,23,-99.99,,,-99.99,meteohub,2013-04-01 17:42:00,
2013-04-01 13:47:00,33.3,-3.3,30.00,WNW,292,13.0,-999.0,20,-99.99,,,-99.99,meteohub,2013-04-01 17:47:00,
2013-04-01 13:52:00,33.8,-0.9,30.00,WNW,292,11.0,-999.0,22,-99.99,,,-99.99,meteohub,2013-04-01 17:52:00,
2013-04-01 13:57:00,33.6,-3.1,29.97,NNW,338,15.0,-999.0,20,-99.99,,,-99.99,meteohub,2013-04-01 17:57:00,
2013-04-01 14:02:00,33.8,-2.9,29.97,NNW,338,17.0,-999.0,20,-99.99,,,-99.99,meteohub,2013-04-01 18:02:00,
2013-04-01 14:08:00,33.8,-2.9,29.97,NW,315,14.0,-999.0,20,-99.99,,,-99.99,meteohub,2013-04-01 18:08:00,
2013-04-01 14:13:00,33.6,-3.1,30.00,NNW,338,15.0,-999.0,20,-99.99,,,-99.99,meteohub,2013-04-01 18:13:00,
2013-04-01 14:18:00,34.0,-2.7,30.00,WNW,292,20.0,-999.0,20,-99.99,,,-99.99,meteohub,2013-04-01 18:18:00,
2013-04-01 14:23:00,34.0,-2.7,30.00,WNW,292,18.0,-999.0,20,-99.99,,,-99.99,meteohub,2013-04-01 18:23:00,
2013-04-01 14:28:00,33.8,-2.9,29.97,WNW,292,13.0,-999.0,20,-99.99,,,-99.99,meteohub,2013-04-01 18:28:00,
2013-04-01 14:34:00,33.8,-2.9,29.97,NW,315,17.0,-999.0,20,-99.99,,,-99.99,meteohub,2013-04-01 18:34:00,
2013-04-01 14:39:00,34.0,-2.7,29.97,NNW,338,18.0,-999.0,20,-99.99,,,-99.99,meteohub,2013-04-01 18:39:00,
2013-04-01 14:44:00,33.8,-2.9,30.00,NNW,338,10.0,-999.0,20,-99.99,,,-99.99,meteohub,2013-04-01 18:44:00,
2013-04-01 14:49:00,34.0,-2.7,30.00,NNW,338,8.0,-999.0,20,-99.99,,,-99.99,meteohub,2013-04-01 18:49:00,
2013-04-01 14:51:00,34.3,-2.4,30.00,NNW,338,8.0,-999.0,20,-99.99,,,-99.99,meteohub,2013-04-01 18:51:00,
2013-04-01 14:57:00,34.3,-2.4,30.00,NNW,338,13.0,-999.0,20,-99.99,,,-99.99,meteohub,2013-04-01 18:57:00,
2013-04-01 15:07:00,34.5,-2.4,30.00,NNW,338,15.0,-999.0,20,-99.99,,,-99.99,meteohub,2013-04-01 19:07:00,
2013-04-01 15:12:00,34.5,-2.4,30.00,NNW,338,13.0,-999.0,20,-99.99,,,-99.99,meteohub,2013-04-01 19:12:00,
2013-04-01 15:17:00,34.0,-2.7,30.00,NW,315,17.0,-999.0,20,-99.99,,,-99.99,meteohub,2013-04-01 19:17:00,
2013-04-01 15:22:00,34.3,-2.4,30.00,North,0,18.0,-999.0,20,-99.99,,,-99.99,meteohub,2013-04-01 19:22:00,
2013-04-01 15:27:00,34.3,-2.4,30.00,NNW,338,15.0,-999.0,20,-99.99,,,-99.99,meteohub,2013-04-01 19:27:00,
2013-04-01 15:32:00,34.5,-2.4,30.00,NW,315,13.0,-999.0,20,-99.99,,,-99.99,meteohub,2013-04-01 19:32:00,
2013-04-01 15:37:00,34.5,-2.4,30.00,NNW,338,13.0,-999.0,20,-99.99,,,-99.99,meteohub,2013-04-01 19:37:00,
2013-04-01 15:43:00,34.5,-2.4,30.00,NNW,338,21.0,-999.0,20,-99.99,,,-99.99,meteohub,2013-04-01 19:43:00,
2013-04-01 15:48:00,34.5,-2.4,30.00,NNW,338,15.0,-999.0,20,-99.99,,,-99.99,meteohub,2013-04-01 19:48:00,
2013-04-01 15:53:00,34.5,-2.4,30.00,NNW,338,15.0,-999.0,20,-99.99,,,-99.99,meteohub,2013-04-01 19:53:00,
2013-04-01 15:58:00,34.5,-2.4,30.00,NW,315,12.0,-999.0,20,-99.99,,,-99.99,meteohub,2013-04-01 19:58:00,
2013-04-01 16:04:00,34.5,-2.4,30.00,NNW,338,17.0,-999.0,20,-99.99,,,-99.99,meteohub,2013-04-01 20:04:00,
2013-04-01 16:09:00,34.9,-2.0,30.00,NW,315,16.0,-999.0,20,-99.99,,,-99.99,meteohub,2013-04-01 20:09:00,
2013-04-01 16:14:00,34.2,-2.6,30.00,WNW,292,15.0,-999.0,20,-99.99,,,-99.99,meteohub,2013-04-01 20:14:00,
2013-04-01 16:20:00,34.2,-2.6,30.00,NNW,338,13.0,-999.0,20,-99.99,,,-99.99,meteohub,2013-04-01 20:20:00,
2013-04-01 16:25:00,34.3,-2.4,30.00,NW,315,9.0,-999.0,20,-99.99,,,-99.99,meteohub,2013-04-01 20:25:00,
2013-04-01 16:30:00,34.5,-2.4,30.00,NNW,338,15.0,-999.0,20,-99.99,,,-99.99,meteohub,2013-04-01 20:30:00,
2013-04-01 16:36:00,34.2,-2.6,30.00,WNW,292,15.0,-999.0,20,-99.99,,,-99.99,meteohub,2013-04-01 20:36:00,
2013-04-01 16:41:00,34.2,-2.6,30.00,NNW,338,6.0,-999.0,20,-99.99,,,-99.99,meteohub,2013-04-01 20:41:00,
2013-04-01 16:46:00,34.5,-2.4,30.00,NNW,338,18.0,-999.0,20,-99.99,,,-99.99,meteohub,2013-04-01 20:46:00,
2013-04-01 16:52:00,34.3,-2.4,30.00,NNW,338,15.0,-999.0,20,-99.99,,,-99.99,meteohub,2013-04-01 20:52:00,
2013-04-01 16:57:00,34.5,-2.4,30.03,WNW,292,15.0,-999.0,20,-99.99,,,-99.99,meteohub,2013-04-01 20:57:00,
2013-04-01 17:02:00,34.3,-2.4,30.03,NW,315,11.0,-999.0,20,-99.99,,,-99.99,meteohub,2013-04-01 21:02:00,
2013-04-01 17:07:00,34.3,-2.4,30.03,NW,315,15.0,-999.0,20,-99.99,,,-99.99,meteohub,2013-04-01 21:07:00,
2013-04-01 17:13:00,34.3,-2.4,30.00,NNW,338,13.0,-999.0,20,-99.99,,,-99.99,meteohub,2013-04-01 21:13:00,
2013-04-01 17:18:00,34.2,-2.6,30.00,NW,315,13.0,-999.0,20,-99.99,,,-99.99,meteohub,2013-04-01 21:18:00,
2013-04-01 17:23:00,34.3,-0.4,30.00,NNW,338,11.0,-999.0,22,-99.99,,,-99.99,meteohub,2013-04-01 21:23:00,
2013-04-01 17:28:00,34.0,-2.7,30.03,NW,315,18.0,-999.0,20,-99.99,,,-99.99,meteohub,2013-04-01 21:28:00,
2013-04-01 17:33:00,34.0,-2.7,30.03,NW,315,15.0,-999.0,20,-99.99,,,-99.99,meteohub,2013-04-01 21:33:00,
2013-04-01 17:38:00,34.0,-2.7,30.03,WNW,292,21.0,-999.0,20,-99.99,,,-99.99,meteohub,2013-04-01 21:38:00,
2013-04-01 17:44:00,34.0,-0.8,30.03,WNW,292,16.0,-999.0,22,-99.99,,,-99.99,meteohub,2013-04-01 21:44:00,
2013-04-01 17:49:00,34.0,-2.7,30.03,WNW,292,13.0,-999.0,20,-99.99,,,-99.99,meteohub,2013-04-01 21:49:00,
2013-04-01 17:54:00,34.0,-0.8,30.03,NNW,338,13.0,-999.0,22,-99.99,,,-99.99,meteohub,2013-04-01 21:54:00,
2013-04-01 17:59:00,34.0,-2.7,30.03,NW,315,11.0,-999.0,20,-99.99,,,-99.99,meteohub,2013-04-01 21:59:00,
2013-04-01 18:04:00,33.6,0.0,30.03,NW,315,13.0,-999.0,23,-99.99,,,-99.99,meteohub,2013-04-01 22:04:00,
2013-04-01 18:09:00,33.8,-0.9,30.03,NW,315,15.0,-999.0,22,-99.99,,,-99.99,meteohub,2013-04-01 22:09:00,
2013-04-01 18:15:00,33.3,-0.4,30.03,NNW,338,11.0,-999.0,23,-99.99,,,-99.99,meteohub,2013-04-01 22:15:00,
2013-04-01 18:20:00,33.1,-0.6,30.03,NNW,338,13.0,-999.0,23,-99.99,,,-99.99,meteohub,2013-04-01 22:20:00,
2013-04-01 18:25:00,32.7,-0.9,30.00,NNW,338,11.0,-999.0,23,-99.99,,,-99.99,meteohub,2013-04-01 22:25:00,
2013-04-01 18:30:00,32.7,-0.9,30.00,NNW,338,11.0,-999.0,23,-99.99,,,-99.99,meteohub,2013-04-01 22:30:00,
2013-04-01 18:35:00,32.7,-0.9,30.00,NNW,338,12.0,-999.0,23,-99.99,,,-99.99,meteohub,2013-04-01 22:35:00,
2013-04-01 18:40:00,32.5,-1.1,30.03,NE,45,10.0,-999.0,23,-99.99,,,-99.99,meteohub,2013-04-01 22:40:00,
2013-04-01 18:45:00,32.5,-4.0,30.03,NNW,338,15.0,-999.0,20,-99.99,,,-99.99,meteohub,2013-04-01 22:45:00,
2013-04-01 18:54:00,32.5,-1.1,30.03,NW,315,11.0,-999.0,23,-99.99,,,-99.99,meteohub,2013-04-01 22:54:00,
2013-04-01 18:59:00,32.5,-1.1,30.03,NNW,338,13.0,-999.0,23,-99.99,,,-99.99,meteohub,2013-04-01 22:59:00,
2013-04-01 19:04:00,32.4,-1.1,30.03,WNW,292,15.0,-999.0,23,-99.99,,,-99.99,meteohub,2013-04-01 23:04:00,
2013-04-01 19:09:00,32.5,-1.1,30.03,NNW,338,11.0,-999.0,23,-99.99,,,-99.99,meteohub,2013-04-01 23:09:00,
2013-04-01 19:15:00,32.4,-1.1,30.03,NNW,338,10.0,-999.0,23,-99.99,,,-99.99,meteohub,2013-04-01 23:15:00,
2013-04-01 19:20:00,32.4,-1.1,30.03,NNW,338,13.0,-999.0,23,-99.99,,,-99.99,meteohub,2013-04-01 23:20:00,
2013-04-01 19:25:00,31.8,-1.7,30.06,NNE,22,15.0,-999.0,23,-99.99,,,-99.99,meteohub,2013-04-01 23:25:00,
2013-04-01 19:30:00,31.3,-2.2,30.06,NNW,338,8.0,-999.0,23,-99.99,,,-99.99,meteohub,2013-04-01 23:30:00,
2013-04-01 19:36:00,31.3,-2.2,30.06,NW,315,7.0,-999.0,23,-99.99,,,-99.99,meteohub,2013-04-01 23:36:00,
2013-04-01 19:41:00,31.6,-1.8,30.06,NNW,338,12.0,-999.0,23,-99.99,,,-99.99,meteohub,2013-04-01 23:41:00,
2013-04-01 19:46:00,31.6,-1.8,30.06,NNW,338,8.0,-999.0,23,-99.99,,,-99.99,meteohub,2013-04-01 23:46:00,
2013-04-01 19:51:00,31.5,-2.0,30.06,NNW,338,13.0,-999.0,23,-99.99,,,-99.99,meteohub,2013-04-01 23:51:00,
2013-04-01 20:15:00,30.4,-2.9,30.06,NW,315,6.0,-999.0,23,-99.99,,,-99.99,meteohub,2013-04-02 00:15:00,
2013-04-01 20:20:00,30.6,-2.7,30.06,NNW,338,13.0,-999.0,23,-99.99,,,-99.99,meteohub,2013-04-02 00:20:00,
2013-04-01 20:25:00,30.7,-2.6,30.06,NW,315,8.0,-999.0,23,-99.99,,,-99.99,meteohub,2013-04-02 00:25:00,
2013-04-01 20:33:00,30.7,-2.6,30.06,NNW,338,11.0,-999.0,23,-99.99,,,-99.99,meteohub,2013-04-02 00:33:00,
2013-04-01 20:38:00,30.7,-2.6,30.06,NNW,338,10.0,-999.0,23,-99.99,,,-99.99,meteohub,2013-04-02 00:38:00,
2013-04-01 20:44:00,30.7,-2.6,30.06,NNW,338,7.0,-999.0,23,-99.99,,,-99.99,meteohub,2013-04-02 00:44:00,
2013-04-01 20:54:00,30.6,-2.7,30.09,NNW,338,10.0,-999.0,23,-99.99,,,-99.99,meteohub,2013-04-02 00:54:00,
2013-04-01 21:06:00,30.6,-2.7,30.09,NW,315,11.0,-999.0,23,-99.99,,,-99.99,meteohub,2013-04-02 01:06:00,
2013-04-01 21:11:00,30.4,-2.9,30.09,NNW,338,6.0,-999.0,23,-99.99,,,-99.99,meteohub,2013-04-02 01:11:00,
2013-04-01 21:16:00,30.4,-2.9,30.09,NNW,338,9.0,-999.0,23,-99.99,,,-99.99,meteohub,2013-04-02 01:16:00,
2013-04-01 21:22:00,30.4,-2.9,30.09,NW,315,8.0,-999.0,23,-99.99,,,-99.99,meteohub,2013-04-02 01:22:00,
2013-04-01 21:27:00,30.4,-2.9,30.09,NNW,338,13.0,-999.0,23,-99.99,,,-99.99,meteohub,2013-04-02 01:27:00,
2013-04-01 21:32:00,29.8,-3.5,30.09,NNW,338,8.0,-999.0,23,-99.99,,,-99.99,meteohub,2013-04-02 01:32:00,
2013-04-01 21:37:00,30.0,-1.5,30.09,WNW,292,8.0,-999.0,25,-99.99,,,-99.99,meteohub,2013-04-02 01:37:00,
2013-04-01 21:42:00,30.0,-1.5,30.09,NW,315,6.0,-999.0,25,-99.99,,,-99.99,meteohub,2013-04-02 01:42:00,
2013-04-01 21:47:00,30.0,-3.3,30.09,NW,315,11.0,-999.0,23,-99.99,,,-99.99,meteohub,2013-04-02 01:47:00,
2013-04-01 21:52:00,30.0,-3.3,30.09,NNW,338,12.0,-999.0,23,-99.99,,,-99.99,meteohub,2013-04-02 01:52:00,
2013-04-01 21:57:00,29.8,-3.5,30.09,NW,315,10.0,-999.0,23,-99.99,,,-99.99,meteohub,2013-04-02 01:57:00,
2013-04-01 22:02:00,29.8,-3.5,30.09,NNW,338,9.0,-999.0,23,-99.99,,,-99.99,meteohub,2013-04-02 02:02:00,
2013-04-01 22:07:00,29.8,-3.5,30.09,NW,315,11.0,-999.0,23,-99.99,,,-99.99,meteohub,2013-04-02 02:07:00,
2013-04-01 22:12:00,29.8,-3.5,30.09,North,0,8.0,-999.0,23,-99.99,,,-99.99,meteohub,2013-04-02 02:12:00,
2013-04-01 22:17:00,29.7,-3.6,30.09,NNW,338,10.0,-999.0,23,-99.99,,,-99.99,meteohub,2013-04-02 02:17:00,
2013-04-01 22:22:00,29.7,-3.6,30.09,NW,315,11.0,-999.0,23,-99.99,,,-99.99,meteohub,2013-04-02 02:22:00,
2013-04-01 22:27:00,29.5,-3.6,30.09,NNW,338,11.0,-999.0,23,-99.99,,,-99.99,meteohub,2013-04-02 02:27:00,
2013-04-01 22:34:00,29.3,-3.8,30.09,NNW,338,6.0,-999.0,23,-99.99,,,-99.99,meteohub,2013-04-02 02:34:00,
2013-04-01 22:39:00,29.3,-3.8,30.06,NNW,338,5.0,-999.0,23,-99.99,,,-99.99,meteohub,2013-04-02 02:39:00,
2013-04-01 22:44:00,29.3,-3.8,30.06,NW,315,9.0,-999.0,23,-99.99,,,-99.99,meteohub,2013-04-02 02:44:00,
2013-04-01 22:50:00,29.1,-4.0,30.06,NNW,338,6.0,-999.0,23,-99.99,,,-99.99,meteohub,2013-04-02 02:50:00,
2013-04-01 22:55:00,29.1,-4.0,30.09,NNW,338,8.0,-999.0,23,-99.99,,,-99.99,meteohub,2013-04-02 02:55:00,
2013-04-01 23:00:00,29.1,-4.0,30.09,NNW,338,7.0,-999.0,23,-99.99,,,-99.99,meteohub,2013-04-02 03:00:00,
2013-04-01 23:05:00,29.1,-4.0,30.09,NNW,338,6.0,-999.0,23,-99.99,,,-99.99,meteohub,2013-04-02 03:05:00,
2013-04-01 23:10:00,28.9,-4.2,30.09,WNW,292,8.0,-999.0,23,-99.99,,,-99.99,meteohub,2013-04-02 03:10:00,
2013-04-01 23:16:00,28.8,-4.4,30.09,NNW,338,9.0,-999.0,23,-99.99,,,-99.99,meteohub,2013-04-02 03:16:00,
2013-04-01 23:34:00,28.6,-4.5,30.06,NW,315,5.0,-999.0,23,-99.99,,,-99.99,meteohub,2013-04-02 03:34:00,
2013-04-01 23:54:00,28.0,-4.9,30.06,WNW,292,5.0,-999.0,23,-99.99,,,-99.99,meteohub,2013-04-02 03:54:00,